RH
8 8 7 7 7 7 6 6 6 6 5 6 8 9 16 19 23 29 27 35 40 39 40 42 38 36 34 38 44 48 51 50 42 38 35 42 51 53 52 50 55 62 57 59 65
8 7 7 7 6 6 6 6 6 5 6 5 5 7 10 17 20 26 28 33 39 37 41 45 40 40 49 41 46 49 48 46 36 37 33 36 47 48 49 50 55 56 57 58 61
8 8 7 7 6 6 6 6 5 5 5 5 5 5 7 13 20 19 25 28 35 34 40 42 41 47 44 49 53 45 42 39 39 36 33 31 38 45 47 50 52 53 52 52 53
8 7 7 7 6 6 6 6 5 5 5 5 5 5 5 9 19 17 21 26 31 32 37 40 46 50 43 42 47 44 46 44 35 36 32 37 32 37 39 43 45 50 50 48 50
7 7 7 6 6 6 6 6 6 5 5 4 5 4 4 8 11 13 18 24 26 30 35 35 47 48 41 43 48 42 43 42 41 43 39 34 40 33 35 33 35 41 41 47 52
7 7 6 6 6 6 6 6 6 6 5 5 5 5 4 6 8 13 18 22 26 30 33 32 41 49 41 43 52 43 42 37 38 41 39 41 40 37 33 30 30 34 37 43 46
7 6 6 6 6 6 6 6 6 6 5 5 6 6 6 7 6 10 15 22 26 29 29 30 33 42 47 38 36 36 38 39 39 40 40 43 36 42 31 31 29 31 34 38 40
6 6 6 6 6 6 6 6 7 6 6 6 6 6 9 7 5 6 15 21 24 26 26 27 30 34 52 38 37 42 38 45 38 40 42 56 48 37 32 31 29 30 34 37 39
5 5 5 5 6 6 6 6 7 7 7 6 7 8 11 7 4 5 12 19 24 24 24 27 30 41 40 40 38 44 64 48 35 38 41 57 47 47 44 41 35 32 32 35 38
8 6 5 5 5 6 6 7 8 8 7 6 7 9 7 8 7 6 8 13 20 21 21 24 29 36 41 40 62 45 42 36 53 36 41 47 53 48 48 47 46 42 36 34 34
12 9 5 5 5 5 6 9 14 16 10 9 15 8 12 10 8 5 7 9 15 20 20 19 25 36 34 37 46 44 41 37 40 49 42 50 53 50 45 47 49 50 44 39 35
15 12 8 5 5 5 8 14 12 11 10 9 8 10 11 9 9 6 7 8 11 15 19 24 21 31 34 37 33 33 35 37 39 36 36 46 48 49 40 42 45 47 46 39 38
17 15 11 7 5 6 9 13 12 12 11 10 8 8 8 8 8 9 6 7 10 12 18 25 18 28 33 30 32 37 33 42 38 39 31 34 41 45 39 39 43 46 45 42 38
18 17 14 9 8 6 11 12 13 13 12 15 9 8 9 9 9 11 6 7 9 12 17 18 24 25 27 27 35 33 36 34 30 32 44 48 59 51 38 36 37 42 43 43 40
20 18 16 11 9 9 10 12 15 14 27 21 14 13 9 8 14 10 7 7 9 9 14 20 21 24 21 24 32 33 37 35 33 31 28 27 26 46 43 31 32 33 38 40 40
19 19 17 14 11 10 8 10 16 16 20 18 13 8 9 9 14 12 7 7 7 8 8 13 19 19 18 23 29 31 32 28 29 33 26 21 29 56 41 40 38 32 33 37 39
19 18 17 15 15 11 10 13 19 17 16 20 15 11 9 11 14 13 8 7 9 10 9 8 12 13 13 18 22 21 24 30 29 27 23 24 26 39 52 37 32 33 30 33 38
18 18 20 17 13 11 12 17 19 18 15 22 18 16 12 14 13 13 13 12 9 10 12 11 9 8 10 11 19 20 27 24 26 21 18 21 22 32 48 29 24 22 28 27 34
16 18 21 23 16 13 15 17 17 18 17 21 21 19 18 19 19 16 13 17 17 11 14 13 14 11 8 8 11 16 24 23 21 23 20 30 22 23 26 25 26 28 23 23 27
15 16 21 21 18 16 18 17 17 17 17 16 21 22 26 23 16 19 19 15 16 16 13 15 15 12 10 8 8 9 14 21 22 23 24 19 16 17 22 22 18 24 29 25 26
14 17 24 20 20 19 19 19 17 16 17 16 18 30 26 26 22 19 17 18 16 16 12 13 14 17 12 8 9 8 10 17 20 19 18 19 19 16 17 16 15 18 25 27 24
15 19 20 19 23 21 20 21 18 19 18 16 17 20 25 26 23 19 19 20 18 18 16 14 15 15 16 11 8 9 9 9 16 22 19 20 19 18 14 13 13 13 17 27 23
17 15 14 15 21 26 27 24 22 20 18 18 16 18 23 27 27 22 21 22 22 18 20 19 17 18 16 14 11 8 8 9 8 12 16 17 15 13 14 13 13 12 17 22 21
19 18 24 21 22 28 40 42 37 32 25 23 19 20 23 24 28 28 25 27 21 20 24 26 21 18 16 17 13 11 8 11 10 9 10 13 14 15 15 14 14 13 14 18 24
24 27 23 26 32 25 25 31 37 42 37 30 24 19 22 26 30 31 30 28 28 25 22 22 22 20 19 17 14 11 10 10 11 10 10 10 12 12 14 14 17 22 21 19 26
21 25 26 19 21 19 22 21 34 39 42 41 35 24 18 26 33 37 32 30 36 32 26 23 23 22 23 18 14 10 10 11 11 12 11 12 12 13 14 15 17 15 17 19 24
30 27 25 19 18 22 22 26 30 37 41 42 45 40 35 31 31 36 40 38 36 40 29 27 23 23 23 20 15 14 11 11 12 12 13 13 13 12 14 23 19 18 14 17 25